Volver al catálogo

STARLINK-31568

ActivoComunicacionesVLEO
NORAD 59412·PAYLOAD·🇺🇸 United States

Lanzado Apr 5, 2024 desde Cape Canaveral Space Force Station

Loading…

Próximos Pases (próximas 24 horas)

TLE

ActualizadoSource: CelesTrak SupGP

Época: Sep 14, 2026, 22:41 UTC

1 59412C 24064Q   26257.94562500  .00059533  00000+0  21563-2 0  2570
2 59412  43.0027  67.5091 0001422 272.6728 252.7501 15.27547995    17

Sigue STARLINK-31568 en tiempo real con AllMySat

Download on the App Store